User: anonymous   Login
Location: Hurstbourne Priors
(51.2000°N, 1.3667°W)
Time: 13:29:54
(UTC+00:00)
Language:

Courier 1B Rocket - Orbit

View from above orbital plane
View from above orbital plane
View from above satellite
View from above satellite

Ground track
Ground track

The orbit data is extracted from the following two-line orbital elements,

1 00059U 60013B   21112.54989713  .00000102  00000-0  21873-4 0  9995
2 00059  28.2490  70.4350 0189076   0.5599 359.5137 13.52983894988256
Epoch (UTC): 22 April 2021 13:11:51
Eccentricity: 0.0189076
inclination: 28.2490°
perigee height: 920 km
apogee height: 1202 km
right ascension of ascending node: 70.4350°
argument of perigee: 0.5599°
revolutions per day: 13.52983894
mean anomaly at epoch: 359.5137°
orbit number at epoch: 98825

The dashed part of the orbit path shows where the satellite is in the earth's shadow,  

DLR